Visibility
15.0 15.0 6.2 15.0 15.0 15.0 15.0 15.0 15.0 15.0 15.0 13.1 15.0 15.0 15.0 15.0 15.0 6.4 3.8 15.0 3.3 10.2 15.0 15.0 15.0 15.0 15.0 15.0 15.0 15.0 15.0 15.0 15.0 14.6 14.2 2.2 8.8 15.0 15.0 15.0 15.0 15.0 15.0 14.7 15.0 13.0 7.4 15.0 15.0 7.9 8.4 15.0 15.0 15.0
15.0 15.0 14.8 15.0 15.0 15.0 15.0 15.0 15.0 15.0 14.2 15.0 15.0 15.0 15.0 15.0 15.0 11.7 0.6 15.0 15.0 0.0 1.9 15.0 15.0 15.0 15.0 15.0 15.0 15.0 15.0 15.0 15.0 15.0 15.0 13.8 14.1 15.0 14.7 12.3 15.0 2.6 0.1 0.4 0.7 0.0 0.0 0.0 0.2 0.9 3.5 1.1 0.1 1.3
15.0 8.1 13.1 15.0 15.0 15.0 15.0 15.0 15.0 15.0 11.7 15.0 15.0 15.0 15.0 15.0 15.0 15.0 13.1 15.0 0.2 0.0 2.6 0.6 15.0 15.0 15.0 15.0 15.0 15.0 15.0 15.0 15.0 4.5 1.4 11.0 1.0 11.9 0.8 14.4 15.0 2.2 0.0 0.2 0.1 0.0 0.0 0.0 0.0 0.0 0.0 0.1 0.3 2.5
15.0 15.0 15.0 15.0 15.0 15.0 15.0 15.0 15.0 12.7 15.0 15.0 15.0 15.0 14.3 15.0 15.0 13.2 11.5 10.4 2.5 0.0 0.1 15.0 15.0 15.0 15.0 15.0 15.0 15.0 15.0 15.0 15.0 15.0 11.3 13.1 0.1 10.8 3.1 9.4 3.0 6.6 15.0 0.4 0.0 0.2 0.0 7.3 0.0 0.1 0.1 0.2 0.4 5.2
15.0 12.1 15.0 15.0 15.0 15.0 15.0 15.0 15.0 14.0 15.0 15.0 15.0 15.0 15.0 15.0 15.0 10.5 13.7 15.0 15.0 0.2 0.3 15.0 15.0 15.0 15.0 15.0 15.0 15.0 15.0 15.0 15.0 15.0 0.3 0.7 15.0 0.2 0.1 0.6 14.0 13.2 0.1 0.2 0.1 0.1 0.1 0.1 0.1 0.1 0.1 0.1 0.3 3.1
8.5 8.8 15.0 15.0 15.0 15.0 15.0 15.0 12.0 15.0 15.0 15.0 15.0 15.0 15.0 15.0 10.0 8.5 0.0 4.7 15.0 15.0 0.0 1.7 15.0 15.0 15.0 15.0 15.0 15.0 15.0 15.0 15.0 1.1 0.0 0.0 14.0 0.5 0.5 5.6 2.9 0.1 0.0 0.0 0.0 0.0 0.1 0.1 0.1 0.4 0.8 5.5 14.7 15.0
13.3 12.4 14.5 14.7 15.0 15.0 15.0 14.4 15.0 15.0 15.0 15.0 15.0 9.1 15.0 13.0 10.7 0.1 0.7 15.0 15.0 15.0 0.0 0.9 15.0 15.0 15.0 15.0 15.0 15.0 15.0 15.0 15.0 0.0 0.0 0.1 15.0 12.7 0.4 14.4 7.0 4.9 10.1 5.9 6.3 2.4 0.1 0.8 0.9 15.0 15.0 15.0 15.0 15.0
15.0 15.0 13.5 15.0 15.0 15.0 15.0 12.5 15.0 15.0 15.0 14.9 12.0 9.1 13.2 11.0 9.5 7.0 6.7 15.0 15.0 0.5 7.6 15.0 15.0 7.9 15.0 15.0 9.1 15.0 15.0 12.1 1.3 4.8 12.2 0.9 15.0 2.2 0.4 9.1 15.0 15.0 15.0 15.0 15.0 15.0 15.0 12.5 15.0 15.0 15.0 15.0 15.0 15.0
15.0 11.8 15.0 15.0 15.0 15.0 15.0 15.0 15.0 15.0 15.0 8.0 6.3 4.1 1.4 9.7 0.1 0.6 14.8 15.0 15.0 15.0 11.6 13.0 12.7 8.2 2.4 0.1 5.5 3.5 12.8 0.3 14.6 0.1 2.4 1.2 2.8 3.0 9.9 15.0 15.0 15.0 15.0 15.0 15.0 15.0 15.0 15.0 15.0 15.0 15.0 15.0 15.0 15.0
13.0 14.0 15.0 15.0 15.0 11.6 15.0 15.0 15.0 15.0 15.0 4.9 1.6 0.0 0.0 0.7 10.7 14.9 4.0 0.0 0.0 0.0 2.7 0.5 15.0 15.0 0.1 0.3 0.2 0.1 15.0 13.1 0.4 15.0 9.5 0.2 10.1 1.6 2.7 14.2 15.0 15.0 15.0 15.0 15.0 14.8 14.7 4.2 13.9 14.9 14.8 14.8 15.0 10.2
15.0 15.0 15.0 15.0 15.0 13.8 15.0 15.0 15.0 15.0 4.3 2.5 0.0 0.0 10.5 10.5 4.7 0.0 0.0 0.7 0.2 0.1 14.0 15.0 15.0 1.3 13.8 0.1 5.5 15.0 4.5 15.0 14.9 13.5 14.3 0.6 2.1 0.7 1.1 11.5 15.0 15.0 15.0 15.0 15.0 15.0 15.0 15.0 15.0 15.0 14.6 15.0 15.0 13.8
15.0 15.0 15.0 14.2 15.0 15.0 15.0 15.0 15.0 3.8 3.1 6.4 3.4 8.4 2.0 0.0 0.0 1.0 3.6 3.1 7.6 15.0 15.0 15.0 15.0 15.0 0.3 0.0 1.1 0.6 10.8 3.1 4.8 0.0 0.1 2.2 0.7 1.5 13.0 15.0 15.0 15.0 15.0 15.0 15.0 15.0 15.0 15.0 15.0 15.0 15.0 9.3 8.6 6.1
15.0 15.0 14.3 15.0 14.8 15.0 15.0 15.0 8.5 5.7 5.5 6.0 0.6 0.0 0.0 0.0 0.1 11.3 0.8 8.2 6.6 15.0 15.0 5.4 0.2 0.3 1.0 0.0 0.0 11.5 11.3 5.4 0.1 0.2 8.3 8.1 1.7 3.3 15.0 15.0 15.0 15.0 15.0 15.0 15.0 15.0 15.0 3.5 15.0 15.0 4.4 4.5 7.9 4.1
13.6 15.0 14.3 15.0 15.0 15.0 15.0 15.0 6.1 4.5 3.2 0.0 0.1 0.0 15.0 0.3 0.4 15.0 15.0 15.0 15.0 15.0 15.0 1.2 9.7 0.1 0.0 0.0 0.1 13.7 11.5 0.4 0.5 0.6 15.0 1.0 1.7 4.3 15.0 15.0 15.0 8.4 14.9 10.4 4.8 5.2 3.3 3.1 1.3 2.4 3.9 12.3 15.0 5.5
15.0 15.0 15.0 10.2 14.3 15.0 15.0 10.4 4.5 3.3 0.0 0.1 0.1 0.3 0.1 13.7 12.9 15.0 15.0 13.3 0.0 10.4 15.0 9.5 15.0 15.0 12.3 0.4 1.5 0.6 0.5 3.4 10.1 15.0 14.0 1.7 2.7 12.4 15.0 15.0 15.0 15.0 14.5 8.8 9.1 6.2 4.1 11.3 4.9 2.2 3.7 14.1 14.7 13.1
0.0 1.6 1.0 9.8 8.6 9.6 15.0 8.2 1.6 0.1 0.1 1.5 3.1 4.0 4.2 3.5 3.7 1.6 10.2 0.2 0.1 5.4 10.8 15.0 8.3 1.5 2.6 10.4 0.8 3.2 15.0 15.0 15.0 14.5 4.2 1.5 4.2 9.4 12.5 15.0 15.0 15.0 15.0 14.2 13.8 14.6 10.3 15.0 15.0 4.5 4.5 9.6 10.3 15.0
10.1 0.1 4.5 14.5 15.0 12.7 8.6 0.1 0.0 0.1 0.4 10.6 4.8 5.9 4.3 5.7 4.8 8.4 5.1 3.2 3.7 0.1 7.4 14.7 15.0 13.8 15.0 15.0 14.9 15.0 15.0 15.0 5.9 1.4 3.4 15.0 14.8 5.5 5.8 10.8 4.9 14.2 8.2 8.9 6.4 15.0 15.0 8.5 10.1 15.0 13.6 6.5 14.2 15.0
0.1 2.0 14.7 14.8 15.0 15.0 0.1 0.1 1.9 5.8 0.2 0.2 1.9 0.3 0.2 0.4 0.6 2.7 4.5 0.2 0.3 11.1 15.0 15.0 15.0 14.6 15.0 15.0 15.0 14.6 3.4 1.5 1.9 3.2 4.7 4.0 4.1 4.3 15.0 9.7 5.6 15.0 15.0 13.9 15.0 14.0 8.0 4.8 5.0 13.6 15.0 15.0 15.0 15.0
2.7 13.6 9.8 13.7 15.0 6.9 0.2 0.4 15.0 9.2 0.5 0.8 0.2 0.2 0.7 0.5 3.1 9.0 4.6 11.5 15.0 15.0 15.0 15.0 15.0 15.0 15.0 15.0 15.0 3.9 2.2 8.2 1.5 0.8 1.0 1.3 8.2 12.3 7.2 14.7 14.3 11.7 14.7 12.5 13.5 15.0 7.2 1.5 0.9 1.3 2.8 3.6 2.4 2.6
9.3 9.7 15.0 15.0 15.0 9.7 15.0 9.0 15.0 15.0 6.1 0.6 2.7 1.6 1.2 2.1 1.1 2.2 14.7 15.0 15.0 15.0 4.9 10.3 14.9 8.2 12.2 15.0 15.0 15.0 15.0 15.0 12.0 2.6 0.9 1.5 3.1 5.6 5.4 5.2 5.4 6.9 11.9 3.3 0.9 1.0 1.0 0.7 11.4 14.1 15.0 9.7 8.2 1.5
15.0 15.0 15.0 15.0 15.0 13.7 15.0 15.0 12.7 14.9 2.1 0.2 1.4 8.6 0.4 0.9 0.3 0.2 0.8 15.0 4.0 1.2 12.8 2.6 1.0 1.1 2.2 12.4 15.0 15.0 15.0 15.0 15.0 15.0 14.9 1.6 2.4 2.4 1.8 2.0 4.2 2.1 1.3 1.2 1.3 0.8 0.8 10.7 15.0 15.0 15.0 15.0 10.0 6.2
15.0 15.0 15.0 15.0 15.0 15.0 15.0 15.0 15.0 15.0 3.1 0.7 3.3 15.0 2.0 0.7 0.4 0.4 15.0 1.3 0.5 1.4 2.8 3.3 2.7 7.0 15.0 15.0 15.0 15.0 15.0 15.0 15.0 14.3 7.6 14.7 1.0 0.8 1.4 1.6 1.3 1.1 0.8 0.7 0.9 1.5 3.6 13.5 15.0 15.0 15.0 15.0 8.7 7.9
15.0 15.0 15.0 15.0 15.0 15.0 0.9 1.5 15.0 15.0 9.5 0.6 15.0 6.3 0.6 0.9 6.1 15.0 0.8 1.5 1.0 0.8 3.0 3.2 8.5 15.0 8.8 15.0 15.0 15.0 15.0 15.0 15.0 14.0 15.0 15.0 13.0 11.1 15.0 15.0 15.0 12.2 11.6 8.9 15.0 15.0 15.0 0.3 5.5 5.4 3.7 5.2 12.5 15.0
15.0 15.0 15.0 14.2 15.0 0.4 7.7 10.6 15.0 15.0 0.5 1.7 13.9 1.9 5.7 13.1 15.0 15.0 6.2 2.3 0.5 0.4 4.0 6.4 15.0 5.4 8.9 15.0 5.8 4.6 15.0 15.0 14.3 13.6 15.0 15.0 15.0 15.0 15.0 15.0 15.0 15.0 15.0 15.0 15.0 15.0 15.0 15.0 0.5 13.8 3.7 3.4 3.2 3.3
15.0 15.0 15.0 13.5 15.0 14.9 14.0 3.9 11.9 14.6 4.1 7.5 10.3 2.3 4.4 15.0 15.0 14.3 9.4 1.1 0.4 0.4 1.5 15.0 15.0 15.0 9.8 1.1 1.7 8.5 15.0 15.0 15.0 15.0 15.0 15.0 15.0 15.0 15.0 15.0 15.0 15.0 15.0 15.0 14.5 4.0 2.2 1.7 1.5 2.8 6.2 5.0 11.5 6.2
7.2 1.2 2.7 4.4 4.5 15.0 7.9 4.8 6.6 7.8 11.6 4.3 1.9 0.7 12.7 15.0 15.0 5.4 15.0 4.4 1.1 1.5 7.8 15.0 15.0 15.0 15.0 15.0 15.0 15.0 15.0 15.0 15.0 15.0 14.3 15.0 15.0 15.0 15.0 15.0 15.0 15.0 15.0 14.3 15.0 15.0 13.9 4.1 2.0 1.7 1.9 12.0 2.0 3.6
4.6 1.6 2.9 14.8 10.5 15.0 15.0 15.0 15.0 15.0 10.3 2.9 1.4 5.1 15.0 10.9 4.1 2.3 1.0 3.9 15.0 15.0 15.0 15.0 15.0 15.0 15.0 15.0 15.0 15.0 15.0 15.0 15.0 15.0 15.0 15.0 15.0 15.0 15.0 15.0 10.7 5.0 13.0 15.0 15.0 14.7 8.9 4.4 3.7 2.8 2.1 2.1 1.7 1.1
4.3 14.0 5.4 5.4 9.9 15.0 7.2 5.3 4.8 1.9 1.3 0.8 15.0 9.3 15.0 15.0 1.7 0.6 0.4 1.5 3.8 15.0 15.0 15.0 15.0 15.0 15.0 15.0 15.0 15.0 15.0 15.0 15.0 15.0 15.0 15.0 15.0 13.5 15.0 15.0 5.4 5.0 15.0 11.4 15.0 15.0 15.0 7.9 9.3 4.8 4.0 4.8 8.9 2.8
11.0 14.1 15.0 15.0 15.0 15.0 1.2 1.6 1.3 1.1 0.7 7.2 13.6 2.6 0.9 0.7 0.4 0.3 0.4 0.8 12.4 15.0 15.0 15.0 3.9 7.1 6.4 9.3 9.6 14.4 15.0 15.0 15.0 15.0 15.0 15.0 5.2 10.3 5.9 5.6 5.5 5.4 4.2 5.7 0.3 1.0 1.5 1.2 2.2 2.4 3.7 3.8 3.7 2.5
15.0 15.0 15.0 13.7 8.9 2.1 0.5 0.5 0.6 0.4 1.0 1.5 7.4 3.1 1.7 0.4 0.1 0.2 0.5 2.8 14.7 13.4 8.2 15.0 10.9 15.0 14.6 15.0 4.2 3.9 3.3 3.1 9.7 14.3 4.1 8.4 15.0 10.3 1.9 2.2 6.2 4.1 5.9 12.7 11.3 13.2 2.2 5.9 7.4 15.0 13.2 13.1 9.0 8.5
12.8 15.0 11.0 14.7 1.5 1.0 0.3 0.8 8.9 8.3 15.0 15.0 11.4 8.0 0.8 0.2 0.1 0.1 0.2 0.2 0.5 11.4 15.0 12.0 6.3 14.6 15.0 7.0 15.0 14.7 15.0 7.8 3.8 6.6 15.0 6.7 2.0 2.9 7.0 3.4 2.6 4.0 5.0 4.0 3.9 3.7 3.6 3.6 3.0 3.4 4.1 4.9 12.5 5.0
15.0 8.7 8.2 4.4 1.7 0.8 1.2 7.3 4.5 1.2 0.4 3.9 3.2 14.3 14.3 14.1 0.8 0.2 0.1 0.3 0.6 4.5 14.3 15.0 15.0 14.8 14.7 15.0 15.0 15.0 11.8 5.0 3.8 3.4 4.0 4.1 3.7 2.4 2.2 2.6 2.4 3.7 6.3 13.7 11.3 5.3 4.2 5.7 14.5 15.0 15.0 15.0 15.0 15.0
3.9 5.1 2.4 2.6 1.7 0.9 1.6 13.2 7.0 3.9 2.0 1.3 0.8 1.6 3.8 13.9 2.0 0.7 0.2 0.3 2.2 15.0 15.0 11.4 5.0 7.2 8.3 11.1 3.9 2.3 3.0 2.0 1.0 0.4 0.6 0.8 3.9 6.2 13.6 13.0 12.9 10.7 13.5 10.8 8.4 6.1 13.4 11.7 15.0 15.0 15.0 15.0 15.0 15.0